CW7109 Weather Reports


time (UTC)temp
C
wind
direction
speed
KPH
gust
KPH
rain 1hr
cm
rain 24hr
cm
rain mn
cm
humidity
%
barometer
mb
20260505212141 29 232 6.4 24.1 0.00 0.00 0.00 19 1010.0
20260505211141 29 252 3.2 24.1 0.00 0.00 0.00 21 1010.0
20260505205141 29 236 3.2 19.3 0.00 0.00 0.00 20 1009.9
20260505204141 29 254 3.2 11.3 0.00 0.00 0.00 20 1010.1
20260505202141 28 290 1.6 20.9 0.00 0.00 0.00 21 1010.0
20260505201141 29 270 6.4 16.1 0.00 0.00 0.00 21 1010.2
20260505200141 29 220 1.6 22.5 0.00 0.00 0.00 22 1010.3
20260505195140 29 288 11.3 16.1 0.00 0.00 0.00 20 1010.3
20260505194140 29 282 0.0 22.5 0.00 0.00 0.00 21 1010.4
20260505193140 29 260 4.8 14.5 0.00 0.00 0.00 22 1010.6
20260505192140 29 261 1.6 11.3 0.00 0.00 0.00 23 1010.7
20260505191140 29 313 9.7 24.1 0.00 0.00 0.00 22 1011.0
20260505190140 29 279 6.4 16.1 0.00 0.00 0.00 24 1011.0
20260505185140 28 355 1.6 12.9 0.00 0.00 0.00 24 1011.1
20260505184140 29 292 8.0 14.5 0.00 0.00 0.00 24 1011.3
20260505183140 28 259 4.8 17.7 0.00 0.00 0.00 23 1011.3
20260505182140 29 215 3.2 16.1 0.00 0.00 0.00 22 1011.5
20260505181140 29 70 1.6 16.1 0.00 0.00 0.00 23 1011.5
20260505180139 28 261 6.4 12.9 0.00 0.00 0.00 22 1011.8
20260505174139 28 250 3.2 17.7 0.00 0.00 0.00 24 1012.0
20260505173139 28 215 4.8 16.1 0.00 0.00 0.00 24 1012.0
20260505172139 28 302 1.6 12.9 0.00 0.00 0.00 24 1012.2
20260505171139 27 252 4.8 19.3 0.00 0.00 0.00 27 1012.3
20260505170139 28 297 1.6 11.3 0.00 0.00 0.00 27 1012.4
20260505165139 27 264 4.8 9.7 0.00 0.00 0.00 29 1012.3
20260505164139 27 281 1.6 12.9 0.00 0.00 0.00 30 1012.4
20260505163139 27 269 0.0 11.3 0.00 0.00 0.00 31 1012.6
20260505161138 26 336 1.6 4.8 0.00 0.00 0.00 34 1012.8
20260505160139 26 249 0.0 14.5 0.00 0.00 0.00 34 1012.9
20260505153138 25 267 1.6 4.8 0.00 0.00 0.00 35 1012.9
20260505152138 25 39 1.6 6.4 0.00 0.00 0.00 36 1013.0
20260505151138 25 41 0.0 11.3 0.00 0.00 0.00 37 1013.0
20260505150137 25 30 0.0 9.7 0.00 0.00 0.00 37 1013.0
20260505140137 23 275 1.6 9.7 0.00 0.00 0.00 40 1013.0
20260505130136 21 269 1.6 6.4 0.00 0.00 0.00 44 1013.4
20260505123136 19 246 3.2 9.7 0.00 0.00 0.00 48 1013.5
20260505122136 18 257 0.0 6.4 0.00 0.00 0.00 50 1013.4
20260505120136 17 217 4.8 6.4 0.00 0.00 0.00 54 1013.3
20260505115135 17 236 0.0 6.4 0.00 0.00 0.00 55 1013.4
20260505114136 16 265 3.2 6.4 0.00 0.00 0.00 56 1013.3
20260505113135 16 248 0.0 6.4 0.00 0.00 0.00 57 1013.2
20260505111136 15 247 1.6 4.8 0.00 0.00 0.00 61 1012.9
20260505110135 15 282 0.0 4.8 0.00 0.00 0.00 63 1012.9
20260505102135 13 252 0.0 1.6 0.00 0.00 0.00 70 1012.4
20260505101135 13 247 0.0 0.0 0.00 0.00 0.00 70 1012.2
20260505100135 13 247 0.0 1.6 0.00 0.00 0.00 69 1012.1
20260505095135 13 247 0.0 0.0 0.00 0.00 0.00 70 1012.1
20260505094135 12 247 0.0 3.2 0.00 0.00 0.00 70 1012.2
20260505092134 12 112 0.0 1.6 0.00 0.00 0.00 71 1012.2
20260505091134 12 66 0.0 0.0 0.00 0.00 0.00 70 1012.2
20260505090134 12 66 0.0 1.6 0.00 0.00 0.00 71 1012.3
20260505085134 12 66 0.0 3.2 0.00 0.00 0.00 71 1012.2
20260505083133 12 302 0.0 0.0 0.00 0.00 0.00 70 1012.3
20260505082133 12 302 0.0 1.6 0.00 0.00 0.00 70 1012.3
20260505081133 12 304 0.0 0.0 0.00 0.00 0.00 70 1012.3
20260505080133 13 304 0.0 0.0 0.00 0.00 0.00 69 1012.3
20260505075133 13 304 0.0 1.6 0.00 0.00 0.00 69 1012.2
20260505074133 13 355 0.0 0.0 0.00 0.00 0.00 69 1012.3
20260505073133 13 355 0.0 0.0 0.00 0.00 0.00 68 1012.2
20260505072133 13 355 0.0 0.0 0.00 0.00 0.00 68 1012.0
20260505071133 13 355 0.0 0.0 0.00 0.00 0.00 67 1012.1
20260505070133 13 355 0.0 0.0 0.00 0.00 0.00 66 1011.9
20260505065133 13 355 0.0 1.6 0.00 0.00 0.00 65 1011.8
20260505064133 14 355 0.0 0.0 0.00 0.00 0.00 64 1011.9
20260505063132 14 355 0.0 0.0 0.00 0.00 0.00 64 1011.9
20260505062132 14 355 0.0 0.0 0.00 0.00 0.00 63 1011.8
20260505061132 14 355 0.0 0.0 0.00 0.00 0.00 64 1011.8
20260505055132 15 355 0.0 0.0 0.00 0.00 0.00 62 1011.9
20260505054132 15 355 0.0 0.0 0.00 0.00 0.00 62 1012.0
20260505053132 15 355 0.0 1.6 0.00 0.00 0.00 61 1012.1
20260505051132 15 340 0.0 0.0 0.00 0.00 0.00 59 1012.0
20260505050201 15 340 0.0 1.6 0.00 0.00 0.00 58 1012.0
20260505035131 16 347 0.0 1.6 0.00 0.00 0.00 53 1011.8
20260505034131 17 347 0.0 0.0 0.00 0.00 0.00 52 1011.9
20260505033131 17 347 0.0 0.0 0.00 0.00 0.00 51 1011.9
20260505032130 17 347 0.0 1.6 0.00 0.00 0.00 50 1011.9
20260505031130 17 347 0.0 1.6 0.00 0.00 0.00 50 1011.9
20260505030200 17 252 0.0 3.2 0.00 0.00 0.00 50 1011.8
20260505025200 17 42 0.0 4.8 0.00 0.00 0.00 50 1011.9
20260505024130 17 253 0.0 0.0 0.00 0.00 0.00 52 1011.9
20260505022200 17 250 0.0 1.6 0.00 0.00 0.00 53 1011.8
20260505021200 17 250 0.0 1.6 0.00 0.00 0.00 53 1012.0
20260505020200 17 250 0.0 0.0 0.00 0.00 0.00 52 1012.0
20260505015200 17 250 0.0 1.6 0.00 0.00 0.00 52 1011.8
20260505013159 17 244 0.0 0.0 0.00 0.00 0.00 51 1011.6
20260505012159 18 244 0.0 0.0 0.00 0.00 0.00 50 1011.6
20260505011159 18 244 0.0 0.0 0.00 0.00 0.00 49 1011.5
20260505010159 18 244 0.0 0.0 0.00 0.00 0.00 47 1011.4
20260505005159 18 244 0.0 0.0 0.00 0.00 0.00 45 1011.4
20260505002159 20 64 0.0 4.8 0.00 0.00 0.00 42 1011.3
20260505001159 20 296 0.0 0.0 0.00 0.00 0.00 41 1011.3
20260505000159 20 296 0.0 1.6 0.00 0.00 0.00 40 1011.2
20260504235158 20 261 0.0 4.8 0.00 0.00 0.00 38 1011.1
20260504234128 21 246 0.0 4.8 0.00 0.00 0.00 37 1011.2
20260504233158 21 306 0.0 6.4 0.00 0.00 0.00 36 1011.3
20260504232128 21 240 0.0 4.8 0.00 0.00 0.00 36 1011.4
20260504231128 21 299 1.6 3.2 0.00 0.00 0.00 35 1011.2
20260504225158 22 203 0.0 6.4 0.00 0.00 0.00 33 1011.0
20260504224128 22 13 0.0 4.8 0.00 0.00 0.00 33 1011.0
20260504223157 22 311 1.6 6.4 0.00 0.00 0.00 31 1010.9
20260504220157 25 309 3.2 11.3 0.00 0.00 0.00 27 1011.0
20260504215157 25 196 1.6 4.8 0.00 0.00 0.00 25 1010.9
20260504214157 25 240 1.6 8.0 0.00 0.00 0.00 25 1010.9
20260504213157 25 243 1.6 11.3 0.00 0.00 0.00 25 1010.9